Main page
METAR-TAF:

METAR-TAF

Airports :

Bushehr, Iran

Bushehr Airport

latitude: 28-59N, longitude: 050-50E, elevation: 19 m

Current weather observation

The report was made 17 minutes ago, at 17:00 UTC
Wind 4 kt from the South
Temperature 30°C
Humidity 52%
Pressure 998 hPa
Visibility 10 km or more
no clouds below 1500 m and no cumulonimbus

METAR: OIBB 261700Z 18004KT CAVOK 30/19 Q0998 A2947

Time: 21:47 (17:17 UTC)


TAF: missing

Weather observations and forecasts of more than 4000 airports (METAR and TAF reports).

The available stations are represented by yellow and red dots on the map.

Hover mouse over dot to see the name of the station.

Then click to see weather observations and forecasts.

To change the map : click on the green buttons with a black cross to zoom in, on the green button with a dash to zoom out, or on the green arrows for adjacent maps.


METAR-TAF: